Regional Weather Roundup
Issued by NWS

Home | Current Version | Previous Version | Text Only | Print | Product List | Glossary Off
Versions: 1 2 3 4 5 6 7 8 9 10 11 12 13 14 15 16 17 18 19 20 21 22 23 24 25 26 27 28 29 30 31 32 33 34 35 36 37 38 39 40 41 42 43 44 45 46 47 48 49 50

000
ASUS43 KOAX 310102
RWRNE

WEATHER ROUNDUP FOR NEBRASKA
NATIONAL WEATHER SERVICE OMAHA NE
800 PM CDT TUE AUG 30 2016

NOTES: SATELLITE DATA IS BEING USED TO AUGMENT CLOUD COVER ABOVE
       12000 FEET.
       "FAIR" INDICATES FEW OR NO CLOUDS BELOW 12,000 FEET WITH NO
       SIGNIFICANT WEATHER AND/OR OBSTRUCTIONS TO VISIBILITY.

  * THESE STATIONS DO NOT REPORT WEATHER SUCH AS RAIN...SNOW OR FOG.

NEZ001>004-019>022-054>056-310200-
NEBRASKA PANHANDLE

CITY           SKY/WX    TMP DP  RH WIND       PRES   REMARKS
SCOTTSBLUFF    CLEAR     77  57  50 SE14      30.22R
ALLIANCE       CLOUDY    70  55  59 S6        30.22S
CHADRON        CLEAR     83  50  31 SE9       30.16S
KIMBALL        CLEAR     72  56  58 E9        30.29R
SIDNEY         CLEAR     72  57  59 SE8       30.27R
$$

NEZ057>060-069>072-079>082-310200-
SOUTHWEST NEBRASKA

CITY           SKY/WX    TMP DP  RH WIND       PRES   REMARKS
NORTH PLATTE   CLOUDY    72  64  76 SE7       30.19F
IMPERIAL       CLOUDY    70  63  78 E8        30.21F
LEXINGTON      CLOUDY    73  68  84 CALM      30.18F
MCCOOK         CLOUDY    71  66  84 E6        30.19S
OGALLALA       MOCLDY    74  62  64 S6        30.20F
$$

NEZ005>010-023>029-035>040-094-310200-
NORTH CENTRAL NEBRASKA

CITY           SKY/WX    TMP DP  RH WIND       PRES   REMARKS
VALENTINE      TSTM      69  58  67 SW15G23   30.19R
AINSWORTH      CLOUDY    72  66  80 E7        30.20R
BROKEN BOW     CLOUDY    71  67  87 SE6       30.19S
O`NEILL        MOCLDY    77  64  62 E5        30.19R
ORD            CLOUDY    75  66  73 CALM      30.16S
THEDFORD       PTCLDY    78  61  56 SE7       30.21R
$$

NEZ041-046>049-061>064-073>077-083>087-310200-
SOUTH CENTRAL NEBRASKA

CITY           SKY/WX    TMP DP  RH WIND       PRES   REMARKS
GRAND ISLAND   CLOUDY    72  69  90 CALM      30.17S
AURORA         CLOUDY    72  71  97 E3        30.17R
HASTINGS       CLOUDY    71  67  87 E5        30.18S
HEBRON         CLOUDY    74  69  86 NE5       30.15R
HOLDREGE       MOCLDY    71  67  88 NE3       30.18S
KEARNEY *      CLOUDY    72  66  83 E5        30.17S
YORK           CLOUDY    70  68  94 NE5       30.16S
$$

NEZ011>018-030>034-042>045-310200-
NORTHEAST NEBRASKA

CITY           SKY/WX    TMP DP  RH WIND       PRES   REMARKS
NORFOLK        CLOUDY    74  67  78 SE3       30.16R
ALBION         CLOUDY    73  68  83 CALM      30.18R
BLAIR          CLOUDY    74  70  86 CALM      30.15S
FREMONT        CLOUDY    75  69  81 CALM      30.15S
TEKAMAH        CLOUDY    75  70  84 CALM      30.14S
WAYNE          CLOUDY    73  71  91 CALM      30.16R
$$

NEZ050>053-065>068-078-088>093-310200-
SOUTHEAST NEBRASKA

CITY           SKY/WX    TMP DP  RH WIND       PRES   REMARKS
LINCOLN        CLOUDY    74  69  85 NE5       30.15S
OMAHA EPPLEY   CLOUDY    75  70  84 N3        30.13S
BEATRICE       CLOUDY    73  71  94 NE5       30.14R
FALLS CITY     CLOUDY    76  71  85 NE5       30.12R
NEBRASKA CITY  CLOUDY    74  73  96 CALM      30.14R
PLATTSMOUTH    CLOUDY    74  70  85 CALM      30.14S
$$

NEZ044-045-051>053-067-310200-
OMAHA AREA

CITY           SKY/WX    TMP DP  RH WIND       PRES   REMARKS
OMAHA EPPLEY   CLOUDY    75  70  84 N3        30.13S
BLAIR          CLOUDY    74  70  86 CALM      30.15S
FREMONT        CLOUDY    75  69  81 CALM      30.15S
MILLARD        CLOUDY   N/A N/A N/A CALM      30.14R
OFFUTT AFB     MOCLDY    75  71  86 N3        30.12F
PLATTSMOUTH    CLOUDY    74  70  85 CALM      30.14S
WAHOO          FAIR      73  70  92 NE3       30.15R
$$



USA.gov is the U.S. government's official web portal to all federal, state and local government web resources and services.